Retour au catalogue

COSMOS 1844

ActifMilitaireLEO
NORAD 17973·PAYLOAD·🇷🇺 Russia

Lancé May 13, 1987 depuis Baikonur Cosmodrome

Loading…

Prochains Passages (prochaines 24 heures)

TLE

FraisSource: Space-Track

Époque: Sep 14, 2026, 06:38 UTC

1 17973U 87041A   26257.27673434 -.00000279  00000-0 -11962-3 0  9997
2 17973  70.9017 356.3858 0028344  99.8992 260.5331 14.14580770 30255

Suivez COSMOS 1844 en temps réel avec AllMySat

Download on the App Store